| time (UTC) | temp F | wind direction | speed MPH | gust MPH | rain 1hr in | rain 24hr in | rain mn in | humidity % | barometer mb |
| 20260507193006 | 47 | 165 | 17.0 | 18.0 | 0.00 | 0.00 | 0.00 | 65 | 1017.6 |
| 20260507192006 | 47 | 171 | 15.0 | 17.0 | 0.00 | 0.00 | 0.00 | 66 | 1017.4 |
| 20260507191006 | 47 | 175 | 14.0 | 15.0 | 0.00 | 0.00 | 0.00 | 68 | 1017.4 |
| 20260507185006 | 47 | 165 | 14.0 | 15.0 | 0.00 | 0.00 | 0.00 | 71 | 1017.4 |
| 20260507184006 | 47 | 175 | 13.0 | 14.0 | 0.00 | 0.00 | 0.00 | 73 | 1017.2 |
| 20260507183006 | 47 | 169 | 12.0 | 13.0 | 0.00 | 0.00 | 0.00 | 72 | 1017.1 |
| 20260507182007 | 48 | 165 | 12.0 | 13.0 | 0.00 | 0.00 | 0.00 | 70 | 1017.1 |
| 20260507181006 | 48 | 147 | 12.0 | 13.0 | 0.00 | 0.00 | 0.00 | 68 | 1016.7 |
| 20260507175006 | 49 | 161 | 11.0 | 15.0 | 0.00 | 0.00 | 0.00 | 70 | 1016.9 |
| 20260507174006 | 48 | 168 | 12.0 | 13.0 | 0.00 | 0.00 | 0.00 | 70 | 1016.7 |
| 20260507173006 | 48 | 165 | 12.0 | 15.0 | 0.00 | 0.00 | 0.00 | 71 | 1016.8 |
| 20260507172006 | 49 | 145 | 13.0 | 15.0 | 0.00 | 0.00 | 0.00 | 69 | 1016.9 |
| 20260507171006 | 49 | 144 | 12.0 | 13.0 | 0.00 | 0.00 | 0.00 | 69 | 1017.2 |
| 20260507165006 | 50 | 147 | 13.0 | 14.0 | 0.00 | 0.00 | 0.00 | 69 | 1016.9 |
| 20260507164006 | 50 | 149 | 10.0 | 13.0 | 0.00 | 0.00 | 0.00 | 67 | 1017.0 |
| 20260507163007 | 50 | 154 | 8.0 | 9.0 | 0.00 | 0.00 | 0.00 | 65 | 1017.0 |
| 20260507161006 | 51 | 148 | 7.0 | 8.0 | 0.00 | 0.00 | 0.00 | 65 | 1017.1 |
| 20260507160006 | 51 | 148 | 7.0 | 9.0 | 0.00 | 0.00 | 0.00 | 65 | 1017.0 |
| 20260507155006 | 51 | 149 | 9.0 | 9.0 | 0.00 | 0.00 | 0.00 | 66 | 1017.1 |
| 20260507154008 | 52 | 159 | 8.0 | 11.0 | 0.00 | 0.00 | 0.00 | 65 | 1017.4 |
| 20260507153006 | 52 | 158 | 10.0 | 11.0 | 0.00 | 0.00 | 0.00 | 64 | 1017.1 |
| 20260507152006 | 52 | 148 | 11.0 | 13.0 | 0.00 | 0.00 | 0.00 | 66 | 1017.1 |
| 20260507151006 | 52 | 148 | 10.0 | 13.0 | 0.00 | 0.00 | 0.00 | 66 | 1017.1 |
| 20260507150006 | 53 | 154 | 11.0 | 11.0 | 0.00 | 0.00 | 0.00 | 64 | 1017.3 |
| 20260507145006 | 53 | 153 | 10.0 | 11.0 | 0.00 | 0.00 | 0.00 | 64 | 1017.2 |
| 20260507144007 | 53 | 155 | 10.0 | 14.0 | 0.00 | 0.00 | 0.00 | 61 | 1017.3 |
| 20260507143006 | 53 | 154 | 10.0 | 11.0 | 0.00 | 0.00 | 0.00 | 60 | 1017.3 |
| 20260507141007 | 55 | 154 | 11.0 | 15.0 | 0.00 | 0.00 | 0.00 | 56 | 1017.0 |
| 20260507140006 | 54 | 143 | 13.0 | 17.0 | 0.00 | 0.00 | 0.00 | 60 | 1017.1 |
| 20260507135005 | 54 | 155 | 11.0 | 13.0 | 0.00 | 0.00 | 0.00 | 59 | 1017.3 |
| 20260507134005 | 56 | 150 | 10.0 | 14.0 | 0.00 | 0.00 | 0.00 | 53 | 1017.4 |
| 20260507133005 | 54 | 153 | 13.0 | 18.0 | 0.00 | 0.00 | 0.00 | 57 | 1017.3 |
| 20260507132006 | 55 | 154 | 16.0 | 21.0 | 0.00 | 0.00 | 0.00 | 56 | 1017.3 |
| 20260507131006 | 56 | 160 | 20.0 | 23.0 | 0.00 | 0.00 | 0.00 | 55 | 1017.3 |
| 20260507125006 | 56 | 146 | 14.0 | 21.0 | 0.00 | 0.00 | 0.00 | 53 | 1017.3 |
| 20260507124006 | 58 | 141 | 11.0 | 15.0 | 0.00 | 0.00 | 0.00 | 50 | 1017.3 |
| 20260507123006 | 55 | 157 | 15.0 | 22.0 | 0.00 | 0.00 | 0.00 | 51 | 1017.3 |
| 20260507120006 | 54 | 173 | 12.0 | 15.0 | 0.00 | 0.00 | 0.00 | 52 | 1017.6 |
| 20260507114006 | 55 | 162 | 19.0 | 21.0 | 0.00 | 0.00 | 0.00 | 50 | 1017.6 |
| 20260507112009 | 55 | 149 | 19.0 | 24.0 | 0.00 | 0.00 | 0.00 | 48 | 1017.6 |
| 20260507111005 | 54 | 155 | 15.0 | 18.0 | 0.00 | 0.00 | 0.00 | 52 | 1017.6 |
| 20260507110005 | 53 | 167 | 14.0 | 17.0 | 0.00 | 0.00 | 0.00 | 52 | 1017.8 |
| 20260507105006 | 53 | 165 | 17.0 | 18.0 | 0.00 | 0.00 | 0.00 | 50 | 1017.8 |
| 20260507104006 | 54 | 152 | 14.0 | 17.0 | 0.00 | 0.00 | 0.00 | 51 | 1017.9 |
| 20260507103006 | 54 | 157 | 11.0 | 15.0 | 0.00 | 0.00 | 0.00 | 55 | 1018.1 |
| 20260507102007 | 52 | 147 | 12.0 | 15.0 | 0.00 | 0.00 | 0.00 | 56 | 1018.1 |
| 20260507101006 | 52 | 156 | 12.0 | 14.0 | 0.00 | 0.00 | 0.00 | 57 | 1018.1 |
| 20260507100006 | 52 | 167 | 11.0 | 14.0 | 0.00 | 0.00 | 0.00 | 57 | 1017.9 |
| 20260507094005 | 52 | 159 | 14.0 | 16.0 | 0.00 | 0.00 | 0.00 | 59 | 1018.0 |
| 20260507093006 | 53 | 148 | 13.0 | 15.0 | 0.00 | 0.00 | 0.00 | 57 | 1018.0 |
| 20260507092006 | 53 | 154 | 12.0 | 13.0 | 0.00 | 0.00 | 0.00 | 58 | 1017.9 |
| 20260507091006 | 55 | 149 | 11.0 | 13.0 | 0.00 | 0.00 | 0.00 | 57 | 1017.9 |
| 20260507090006 | 54 | 149 | 12.0 | 14.0 | 0.00 | 0.00 | 0.00 | 54 | 1017.6 |
| 20260507085006 | 52 | 158 | 12.0 | 14.0 | 0.00 | 0.00 | 0.00 | 59 | 1017.9 |
| 20260507082006 | 51 | 166 | 11.0 | 13.0 | 0.00 | 0.00 | 0.00 | 63 | 1018.0 |
| 20260507081006 | 51 | 165 | 12.0 | 13.0 | 0.00 | 0.00 | 0.00 | 62 | 1017.9 |
| 20260507075005 | 53 | 172 | 11.0 | 13.0 | 0.00 | 0.00 | 0.00 | 62 | 1017.5 |
| 20260507073006 | 53 | 168 | 11.0 | 13.0 | 0.00 | 0.00 | 0.00 | 61 | 1017.4 |
| 20260507072006 | 53 | 158 | 12.0 | 15.0 | 0.00 | 0.00 | 0.00 | 61 | 1017.6 |
| 20260507071006 | 53 | 169 | 12.0 | 14.0 | 0.00 | 0.00 | 0.00 | 64 | 1017.6 |
| 20260507065006 | 54 | 183 | 8.0 | 9.0 | 0.00 | 0.00 | 0.00 | 65 | 1017.6 |
| 20260507064006 | 53 | 162 | 9.0 | 11.0 | 0.00 | 0.00 | 0.00 | 65 | 1017.6 |
| 20260507063006 | 52 | 163 | 11.0 | 13.0 | 0.00 | 0.00 | 0.00 | 66 | 1017.7 |
| 20260507062006 | 53 | 156 | 8.0 | 11.0 | 0.00 | 0.00 | 0.00 | 64 | 1017.6 |
| 20260507061006 | 52 | 162 | 5.0 | 7.0 | 0.00 | 0.00 | 0.00 | 64 | 1017.7 |
| 20260507060006 | 51 | 177 | 6.0 | 8.0 | 0.00 | 0.00 | 0.00 | 67 | 1017.8 |
| 20260507054005 | 50 | 179 | 7.0 | 8.0 | 0.00 | 0.00 | 0.00 | 68 | 1017.7 |
| 20260507052005 | 51 | 174 | 8.0 | 9.0 | 0.00 | 0.00 | 0.00 | 62 | 1017.5 |
| 20260507051006 | 47 | 199 | 7.0 | 9.0 | 0.00 | 0.00 | 0.00 | 64 | 1015.9 |
| 20260507045005 | 47 | 199 | 7.0 | 9.0 | 0.00 | 0.00 | 0.00 | 64 | 1015.9 |
| 20260507044005 | 47 | 199 | 7.0 | 9.0 | 0.00 | 0.00 | 0.00 | 64 | 1015.9 |
| 20260507043005 | 47 | 199 | 7.0 | 9.0 | 0.00 | 0.00 | 0.00 | 64 | 1015.9 |
| 20260507042005 | 47 | 199 | 7.0 | 9.0 | 0.00 | 0.00 | 0.00 | 64 | 1015.9 |
| 20260507041005 | 47 | 199 | 7.0 | 9.0 | 0.00 | 0.00 | 0.00 | 64 | 1015.9 |
| 20260507040005 | 47 | 199 | 7.0 | 9.0 | 0.00 | 0.00 | 0.00 | 64 | 1015.9 |
| 20260507035005 | 47 | 199 | 7.0 | 9.0 | 0.00 | 0.00 | 0.00 | 64 | 1015.9 |
| 20260507034005 | 47 | 199 | 7.0 | 9.0 | 0.00 | 0.00 | 0.00 | 64 | 1015.9 |
| 20260507033006 | 47 | 199 | 7.0 | 9.0 | 0.00 | 0.00 | 0.00 | 64 | 1015.9 |
| 20260507032006 | 47 | 199 | 7.0 | 9.0 | 0.00 | 0.00 | 0.00 | 64 | 1015.9 |
| 20260507031006 | 47 | 199 | 7.0 | 9.0 | 0.00 | 0.00 | 0.00 | 64 | 1015.9 |
| 20260507030006 | 47 | 199 | 7.0 | 9.0 | 0.00 | 0.00 | 0.00 | 64 | 1015.9 |
| 20260507025006 | 47 | 199 | 7.0 | 9.0 | 0.00 | 0.00 | 0.00 | 64 | 1015.9 |
| 20260507024006 | 47 | 199 | 7.0 | 9.0 | 0.00 | 0.00 | 0.00 | 64 | 1015.9 |
| 20260507022006 | 47 | 199 | 7.0 | 9.0 | 0.00 | 0.00 | 0.00 | 64 | 1015.9 |
| 20260507021006 | 47 | 199 | 7.0 | 9.0 | 0.00 | 0.00 | 0.00 | 64 | 1015.9 |
| 20260507020006 | 47 | 199 | 7.0 | 9.0 | 0.00 | 0.00 | 0.00 | 64 | 1015.9 |
| 20260507014005 | 47 | 199 | 7.0 | 9.0 | 0.00 | 0.00 | 0.00 | 64 | 1015.9 |
| 20260507013005 | 47 | 199 | 7.0 | 9.0 | 0.00 | 0.00 | 0.00 | 64 | 1015.9 |
| 20260507012005 | 47 | 199 | 7.0 | 9.0 | 0.00 | 0.00 | 0.00 | 64 | 1015.9 |
| 20260507011005 | 47 | 199 | 7.0 | 9.0 | 0.00 | 0.00 | 0.00 | 64 | 1015.9 |
| 20260507010006 | 47 | 199 | 7.0 | 9.0 | 0.00 | 0.00 | 0.00 | 64 | 1015.9 |
| 20260507005006 | 47 | 199 | 7.0 | 9.0 | 0.00 | 0.00 | 0.00 | 64 | 1015.9 |
| 20260507004006 | 47 | 199 | 7.0 | 9.0 | 0.00 | 0.00 | 0.00 | 64 | 1015.9 |
| 20260507002005 | 47 | 199 | 7.0 | 9.0 | 0.00 | 0.00 | 0.00 | 64 | 1015.9 |
| 20260507001005 | 47 | 199 | 7.0 | 9.0 | 0.00 | 0.00 | 0.00 | 64 | 1015.9 |
| 20260506235006 | 47 | 199 | 7.0 | 9.0 | 0.00 | 0.00 | 0.00 | 64 | 1015.9 |
| 20260506234005 | 47 | 199 | 7.0 | 9.0 | 0.00 | 0.00 | 0.00 | 64 | 1015.9 |
| 20260506233006 | 47 | 199 | 7.0 | 9.0 | 0.00 | 0.00 | 0.00 | 64 | 1015.9 |
| 20260506232006 | 47 | 199 | 7.0 | 9.0 | 0.00 | 0.00 | 0.00 | 64 | 1015.9 |
| 20260506231006 | 47 | 199 | 7.0 | 9.0 | 0.00 | 0.00 | 0.00 | 64 | 1015.9 |
| 20260506230006 | 47 | 199 | 7.0 | 9.0 | 0.00 | 0.00 | 0.00 | 64 | 1015.9 |
| 20260506225006 | 47 | 199 | 7.0 | 9.0 | 0.00 | 0.00 | 0.00 | 64 | 1015.9 |
| 20260506224005 | 47 | 199 | 7.0 | 9.0 | 0.00 | 0.00 | 0.00 | 64 | 1015.9 |
| 20260506223005 | 47 | 199 | 7.0 | 9.0 | 0.00 | 0.00 | 0.00 | 64 | 1015.9 |
| 20260506222005 | 47 | 199 | 7.0 | 9.0 | 0.00 | 0.00 | 0.00 | 64 | 1015.9 |
| 20260506221005 | 47 | 199 | 7.0 | 9.0 | 0.00 | 0.00 | 0.00 | 64 | 1015.9 |
| 20260506220005 | 47 | 199 | 7.0 | 9.0 | 0.00 | 0.00 | 0.00 | 64 | 1015.9 |
| 20260506215006 | 47 | 199 | 7.0 | 9.0 | 0.00 | 0.00 | 0.00 | 64 | 1015.9 |
| 20260506214005 | 47 | 199 | 7.0 | 9.0 | 0.00 | 0.00 | 0.00 | 64 | 1015.9 |
| 20260506212005 | 47 | 199 | 7.0 | 9.0 | 0.00 | 0.00 | 0.00 | 64 | 1015.9 |
| 20260506211006 | 47 | 199 | 7.0 | 9.0 | 0.00 | 0.00 | 0.00 | 64 | 1015.9 |
| 20260506210007 | 47 | 199 | 7.0 | 9.0 | 0.00 | 0.00 | 0.00 | 64 | 1015.9 |
| 20260506205006 | 47 | 199 | 7.0 | 9.0 | 0.00 | 0.00 | 0.00 | 64 | 1015.9 |
| 20260506204006 | 47 | 199 | 7.0 | 9.0 | 0.00 | 0.00 | 0.00 | 64 | 1015.9 |
| 20260506203006 | 47 | 199 | 7.0 | 9.0 | 0.00 | 0.00 | 0.00 | 64 | 1015.9 |
| 20260506202006 | 47 | 199 | 7.0 | 9.0 | 0.00 | 0.00 | 0.00 | 64 | 1015.9 |
| 20260506195005 | 47 | 199 | 7.0 | 9.0 | 0.00 | 0.00 | 0.00 | 64 | 1015.9 |